Year,Month,Day,Hour,Minute,Value (Times are PST for temperature in C)
2010,06,12,00,00,11.80
2010,06,12,00,01,11.80
2010,06,12,00,02,11.80
2010,06,12,00,03,11.80
2010,06,12,00,04,11.80
2010,06,12,00,05,11.70
2010,06,12,00,06,11.70
2010,06,12,00,07,11.70
2010,06,12,00,08,11.60
2010,06,12,00,09,11.60
2010,06,12,00,10,11.60
2010,06,12,00,11,11.60
2010,06,12,00,12,11.70
2010,06,12,00,13,11.70
2010,06,12,00,14,11.70
2010,06,12,00,15,11.70
2010,06,12,00,16,11.70
2010,06,12,00,17,11.70
2010,06,12,00,18,11.60
2010,06,12,00,19,11.60
2010,06,12,00,20,11.60
2010,06,12,00,21,11.60
2010,06,12,00,22,11.60
2010,06,12,00,23,11.60
2010,06,12,00,24,11.60
2010,06,12,00,25,11.60
2010,06,12,00,26,11.60
2010,06,12,00,27,11.50
2010,06,12,00,28,11.50
2010,06,12,00,29,11.50
2010,06,12,00,30,11.50
2010,06,12,00,31,11.60
2010,06,12,00,32,11.60
2010,06,12,00,33,11.60
2010,06,12,00,34,11.50
2010,06,12,00,35,11.50
2010,06,12,00,36,11.40
2010,06,12,00,37,11.40
2010,06,12,00,38,11.30
2010,06,12,00,39,11.30
2010,06,12,00,40,11.30
2010,06,12,00,41,11.20
2010,06,12,00,42,11.20
2010,06,12,00,43,11.20
2010,06,12,00,44,11.20
2010,06,12,00,45,11.20
2010,06,12,00,46,11.30
2010,06,12,00,47,11.30
2010,06,12,00,48,11.30
2010,06,12,00,49,11.30
2010,06,12,00,50,11.30
2010,06,12,00,51,11.40
2010,06,12,00,52,11.40
2010,06,12,00,53,11.40
2010,06,12,00,54,11.40
2010,06,12,00,55,11.40
2010,06,12,00,56,11.40
2010,06,12,00,57,11.40
2010,06,12,00,58,11.40
2010,06,12,00,59,11.40
2010,06,12,01,00,11.40
2010,06,12,01,01,11.40
2010,06,12,01,02,11.30
2010,06,12,01,03,11.20
2010,06,12,01,04,11.10
2010,06,12,01,05,11.00
2010,06,12,01,06,10.90
2010,06,12,01,07,10.90
2010,06,12,01,08,10.90
2010,06,12,01,09,10.90
2010,06,12,01,10,10.90
2010,06,12,01,11,10.90
2010,06,12,01,12,10.90
2010,06,12,01,13,10.90
2010,06,12,01,14,10.90
2010,06,12,01,15,11.00
2010,06,12,01,16,11.00
2010,06,12,01,17,11.00
2010,06,12,01,18,11.00
2010,06,12,01,19,10.90
2010,06,12,01,20,10.90
2010,06,12,01,21,10.90
2010,06,12,01,22,10.90
2010,06,12,01,23,11.00
2010,06,12,01,24,11.00
2010,06,12,01,25,11.10
2010,06,12,01,26,11.10
2010,06,12,01,27,11.10
2010,06,12,01,28,11.20
2010,06,12,01,29,11.10
2010,06,12,01,30,11.10
2010,06,12,01,31,11.00
2010,06,12,01,32,10.90
2010,06,12,01,33,10.80
2010,06,12,01,34,10.80
2010,06,12,01,35,10.70
2010,06,12,01,36,10.70
2010,06,12,01,37,10.70
2010,06,12,01,38,10.70
2010,06,12,01,39,10.60
2010,06,12,01,40,10.60
2010,06,12,01,41,10.60
2010,06,12,01,42,10.50
2010,06,12,01,43,10.50
2010,06,12,01,44,10.40
2010,06,12,01,45,10.40
2010,06,12,01,46,10.40
2010,06,12,01,47,10.40
2010,06,12,01,48,10.40
2010,06,12,01,49,10.40
2010,06,12,01,50,10.50
2010,06,12,01,51,10.50
2010,06,12,01,52,10.50
2010,06,12,01,53,10.50
2010,06,12,01,54,10.50
2010,06,12,01,55,10.40
2010,06,12,01,56,10.40
2010,06,12,01,57,10.30
2010,06,12,01,58,10.30
2010,06,12,01,59,10.30
2010,06,12,02,00,10.20
2010,06,12,02,01,10.20
2010,06,12,02,02,10.20
2010,06,12,02,03,10.10
2010,06,12,02,04,10.10
2010,06,12,02,05,10.10
2010,06,12,02,06,10.10
2010,06,12,02,07,10.10
2010,06,12,02,08,10.10
2010,06,12,02,09,10.10
2010,06,12,02,10,10.10
2010,06,12,02,11,10.10
2010,06,12,02,12,10.10
2010,06,12,02,13,10.10
2010,06,12,02,14,10.10
2010,06,12,02,15,10.10
2010,06,12,02,16,10.10
2010,06,12,02,17,10.10
2010,06,12,02,18,10.10
2010,06,12,02,19,10.10
2010,06,12,02,20,10.10
2010,06,12,02,21,10.10
2010,06,12,02,22,10.10
2010,06,12,02,23,10.10
2010,06,12,02,24,10.10
2010,06,12,02,25,10.10
2010,06,12,02,26,10.00
2010,06,12,02,27,10.00
2010,06,12,02,28,10.00
2010,06,12,02,29,10.00
2010,06,12,02,30,9.90
2010,06,12,02,31,9.90
2010,06,12,02,32,9.90
2010,06,12,02,33,9.90
2010,06,12,02,34,9.90
2010,06,12,02,35,9.90
2010,06,12,02,36,9.80
2010,06,12,02,37,9.80
2010,06,12,02,38,9.80
2010,06,12,02,39,9.80
2010,06,12,02,40,9.90
2010,06,12,02,41,9.90
2010,06,12,02,42,9.90
2010,06,12,02,43,9.90
2010,06,12,02,44,9.90
2010,06,12,02,45,10.00
2010,06,12,02,46,9.90
2010,06,12,02,47,9.90
2010,06,12,02,48,9.90
2010,06,12,02,49,9.90
2010,06,12,02,50,9.90
2010,06,12,02,51,9.90
2010,06,12,02,52,9.90
2010,06,12,02,53,9.90
2010,06,12,02,54,9.90
2010,06,12,02,55,9.80
2010,06,12,02,56,9.80
2010,06,12,02,57,9.70
2010,06,12,02,58,9.70
2010,06,12,02,59,9.70
2010,06,12,03,00,9.70
2010,06,12,03,01,9.70
2010,06,12,03,02,9.80
2010,06,12,03,03,9.80
2010,06,12,03,04,9.70
2010,06,12,03,05,9.70
2010,06,12,03,06,9.70
2010,06,12,03,07,9.70
2010,06,12,03,08,9.70
2010,06,12,03,09,9.70
2010,06,12,03,10,9.70
2010,06,12,03,11,9.80
2010,06,12,03,12,9.80
2010,06,12,03,13,9.80
2010,06,12,03,14,9.80
2010,06,12,03,15,9.80
2010,06,12,03,16,9.80
2010,06,12,03,17,9.80
2010,06,12,03,18,9.70
2010,06,12,03,19,9.70
2010,06,12,03,20,9.70
2010,06,12,03,21,9.70
2010,06,12,03,22,9.70
2010,06,12,03,23,9.70
2010,06,12,03,24,9.70
2010,06,12,03,25,9.70
2010,06,12,03,26,9.70
2010,06,12,03,27,9.60
2010,06,12,03,28,9.60
2010,06,12,03,29,9.60
2010,06,12,03,30,9.60
2010,06,12,03,31,9.60
2010,06,12,03,32,9.60
2010,06,12,03,33,9.70
2010,06,12,03,34,9.70
2010,06,12,03,35,9.70
2010,06,12,03,36,9.70
2010,06,12,03,37,9.70
2010,06,12,03,38,9.60
2010,06,12,03,39,9.60
2010,06,12,03,40,9.60
2010,06,12,03,41,9.60
2010,06,12,03,42,9.60
2010,06,12,03,43,9.50
2010,06,12,03,44,9.50
2010,06,12,03,45,9.50
2010,06,12,03,46,9.40
2010,06,12,03,47,9.40
2010,06,12,03,48,9.40
2010,06,12,03,49,9.40
2010,06,12,03,50,9.40
2010,06,12,03,51,9.40
2010,06,12,03,52,9.40
2010,06,12,03,53,9.40
2010,06,12,03,54,9.40
2010,06,12,03,55,9.50
2010,06,12,03,56,9.50
2010,06,12,03,57,9.50
2010,06,12,03,58,9.50
2010,06,12,03,59,9.50
2010,06,12,04,00,9.50
2010,06,12,04,01,9.50
2010,06,12,04,02,9.50
2010,06,12,04,03,9.50
2010,06,12,04,04,9.50
2010,06,12,04,05,9.60
2010,06,12,04,06,9.60
2010,06,12,04,07,9.60
2010,06,12,04,08,9.70
2010,06,12,04,09,9.70
2010,06,12,04,10,9.70
2010,06,12,04,11,9.70
2010,06,12,04,12,9.70
2010,06,12,04,13,9.70
2010,06,12,04,14,9.60
2010,06,12,04,15,9.60
2010,06,12,04,16,9.60
2010,06,12,04,17,9.60
2010,06,12,04,18,9.60
2010,06,12,04,19,9.60
2010,06,12,04,20,9.60
2010,06,12,04,21,9.60
2010,06,12,04,22,9.60
2010,06,12,04,23,9.60
2010,06,12,04,24,9.60
2010,06,12,04,25,9.60
2010,06,12,04,26,9.60
2010,06,12,04,27,9.60
2010,06,12,04,28,9.60
2010,06,12,04,29,9.60
2010,06,12,04,30,9.60
2010,06,12,04,31,9.60
2010,06,12,04,32,9.70
2010,06,12,04,33,9.70
2010,06,12,04,34,9.80
2010,06,12,04,35,9.80
2010,06,12,04,36,9.80
2010,06,12,04,37,9.80
2010,06,12,04,38,9.80
2010,06,12,04,39,9.90
2010,06,12,04,40,9.80
2010,06,12,04,41,9.80
2010,06,12,04,42,9.80
2010,06,12,04,43,9.80
2010,06,12,04,44,9.80
2010,06,12,04,45,9.80
2010,06,12,04,46,9.90
2010,06,12,04,47,9.90
2010,06,12,04,48,9.90
2010,06,12,04,49,9.90
2010,06,12,04,50,10.00
2010,06,12,04,51,10.00
2010,06,12,04,52,10.00
2010,06,12,04,53,10.00
2010,06,12,04,54,10.00
2010,06,12,04,55,10.00
2010,06,12,04,56,9.90
2010,06,12,04,57,9.90
2010,06,12,04,58,9.90
2010,06,12,04,59,9.80
2010,06,12,05,00,9.80
2010,06,12,05,01,9.70
2010,06,12,05,02,9.70
2010,06,12,05,03,9.70
2010,06,12,05,04,9.70
2010,06,12,05,05,9.70
2010,06,12,05,06,9.70
2010,06,12,05,07,9.70
2010,06,12,05,08,9.70
2010,06,12,05,09,9.80
2010,06,12,05,10,9.70
2010,06,12,05,11,9.70
2010,06,12,05,12,9.70
2010,06,12,05,13,9.70
2010,06,12,05,14,9.60
2010,06,12,05,15,9.60
2010,06,12,05,16,9.60
2010,06,12,05,17,9.70
2010,06,12,05,18,9.70
2010,06,12,05,19,9.70
2010,06,12,05,20,9.80
2010,06,12,05,21,9.80
2010,06,12,05,22,9.80
2010,06,12,05,23,9.90
2010,06,12,05,24,9.90
2010,06,12,05,25,9.90
2010,06,12,05,26,9.90
2010,06,12,05,27,10.00
2010,06,12,05,28,10.00
2010,06,12,05,29,10.10
2010,06,12,05,30,10.10
2010,06,12,05,31,10.10
2010,06,12,05,32,10.10
2010,06,12,05,33,10.10
2010,06,12,05,34,10.20
2010,06,12,05,35,10.20
2010,06,12,05,36,10.20
2010,06,12,05,37,10.30
2010,06,12,05,38,10.30
2010,06,12,05,39,10.30
2010,06,12,05,40,10.30
2010,06,12,05,41,10.30
2010,06,12,05,42,10.40
2010,06,12,05,43,10.40
2010,06,12,05,44,10.40
2010,06,12,05,45,10.30
2010,06,12,05,46,10.30
2010,06,12,05,47,10.30
2010,06,12,05,48,10.20
2010,06,12,05,49,10.20
2010,06,12,05,50,10.10
2010,06,12,05,51,10.10
2010,06,12,05,52,10.10
2010,06,12,05,53,10.00
2010,06,12,05,54,10.00
2010,06,12,05,55,10.00
2010,06,12,05,56,9.90
2010,06,12,05,57,9.90
2010,06,12,05,58,9.90
2010,06,12,05,59,9.90
2010,06,12,06,00,9.90
2010,06,12,06,01,9.90
2010,06,12,06,02,9.90
2010,06,12,06,03,9.90
2010,06,12,06,04,9.90
2010,06,12,06,05,9.90
2010,06,12,06,06,9.90
2010,06,12,06,07,10.00
2010,06,12,06,08,10.00
2010,06,12,06,09,10.00
2010,06,12,06,10,10.10
2010,06,12,06,11,10.10
2010,06,12,06,12,10.10
2010,06,12,06,13,10.20
2010,06,12,06,14,10.20
2010,06,12,06,15,10.30
2010,06,12,06,16,10.30
2010,06,12,06,17,10.40
2010,06,12,06,18,10.40
2010,06,12,06,19,10.50
2010,06,12,06,20,10.50
2010,06,12,06,21,10.60
2010,06,12,06,22,10.70
2010,06,12,06,23,10.80
2010,06,12,06,24,10.80
2010,06,12,06,25,10.90
2010,06,12,06,26,10.90
2010,06,12,06,27,11.00
2010,06,12,06,28,11.10
2010,06,12,06,29,11.10
2010,06,12,06,30,11.20
2010,06,12,06,31,11.30
2010,06,12,06,32,11.30
2010,06,12,06,33,11.40
2010,06,12,06,34,11.40
2010,06,12,06,35,11.40
2010,06,12,06,36,11.50
2010,06,12,06,37,11.50
2010,06,12,06,38,11.50
2010,06,12,06,39,11.50
2010,06,12,06,40,11.50
2010,06,12,06,41,11.50
2010,06,12,06,42,11.50
2010,06,12,06,43,11.50
2010,06,12,06,44,11.60
2010,06,12,06,45,11.60
2010,06,12,06,46,11.60
2010,06,12,06,47,11.60
2010,06,12,06,48,11.60
2010,06,12,06,49,11.60
2010,06,12,06,50,11.60
2010,06,12,06,51,11.70
2010,06,12,06,52,11.60
2010,06,12,06,53,11.60
2010,06,12,06,54,11.70
2010,06,12,06,55,11.70
2010,06,12,06,56,11.70
2010,06,12,06,57,11.70
2010,06,12,06,58,11.70
2010,06,12,06,59,11.80
2010,06,12,07,00,11.70
2010,06,12,07,01,11.70
2010,06,12,07,02,11.80
2010,06,12,07,03,11.80
2010,06,12,07,04,11.80
2010,06,12,07,05,11.80
2010,06,12,07,06,11.80
2010,06,12,07,07,11.80
2010,06,12,07,08,11.80
2010,06,12,07,09,11.80
2010,06,12,07,10,11.80
2010,06,12,07,11,11.80
2010,06,12,07,12,11.90
2010,06,12,07,13,11.90
2010,06,12,07,14,11.90
2010,06,12,07,15,11.90
2010,06,12,07,16,12.00
2010,06,12,07,17,12.00
2010,06,12,07,18,12.00
2010,06,12,07,19,12.00
2010,06,12,07,20,12.00
2010,06,12,07,21,12.00
2010,06,12,07,22,12.00
2010,06,12,07,23,12.10
2010,06,12,07,24,12.10
2010,06,12,07,25,12.20
2010,06,12,07,26,12.20
2010,06,12,07,27,12.20
2010,06,12,07,28,12.30
2010,06,12,07,29,12.30
2010,06,12,07,30,12.30
2010,06,12,07,31,12.30
2010,06,12,07,32,12.30
2010,06,12,07,33,12.40
2010,06,12,07,34,12.50
2010,06,12,07,35,12.50
2010,06,12,07,36,12.60
2010,06,12,07,37,12.70
2010,06,12,07,38,12.70
2010,06,12,07,39,12.70
2010,06,12,07,40,12.80
2010,06,12,07,41,12.80
2010,06,12,07,42,12.90
2010,06,12,07,43,12.90
2010,06,12,07,44,13.00
2010,06,12,07,45,13.00
2010,06,12,07,46,13.00
2010,06,12,07,47,13.10
2010,06,12,07,48,13.10
2010,06,12,07,49,13.10
2010,06,12,07,50,13.10
2010,06,12,07,51,13.10
2010,06,12,07,52,13.20
2010,06,12,07,53,13.20
2010,06,12,07,54,13.30
2010,06,12,07,55,13.40
2010,06,12,07,56,13.50
2010,06,12,07,57,13.50
2010,06,12,07,58,13.60
2010,06,12,07,59,13.60
2010,06,12,08,00,13.60
2010,06,12,08,01,13.60
2010,06,12,08,02,13.60
2010,06,12,08,03,13.70
2010,06,12,08,04,13.80
2010,06,12,08,05,13.80
2010,06,12,08,06,13.80
2010,06,12,08,07,13.80
2010,06,12,08,08,13.80
2010,06,12,08,09,13.70
2010,06,12,08,10,13.70
2010,06,12,08,11,13.60
2010,06,12,08,12,13.70
2010,06,12,08,13,13.70
2010,06,12,08,14,13.70
2010,06,12,08,15,13.80
2010,06,12,08,16,13.80
2010,06,12,08,17,13.80
2010,06,12,08,18,13.80
2010,06,12,08,19,13.80
2010,06,12,08,20,13.80
2010,06,12,08,21,13.80
2010,06,12,08,22,13.80
2010,06,12,08,23,13.80
2010,06,12,08,24,13.90
2010,06,12,08,25,13.90
2010,06,12,08,26,14.00
2010,06,12,08,27,14.00
2010,06,12,08,28,14.10
2010,06,12,08,29,14.10
2010,06,12,08,30,14.20
2010,06,12,08,31,14.20
2010,06,12,08,32,14.20
2010,06,12,08,33,14.30
2010,06,12,08,34,14.30
2010,06,12,08,35,14.30
2010,06,12,08,36,14.30
2010,06,12,08,37,14.30
2010,06,12,08,38,14.30
2010,06,12,08,39,14.40
2010,06,12,08,40,14.40
2010,06,12,08,41,14.40
2010,06,12,08,42,14.50
2010,06,12,08,43,14.50
2010,06,12,08,44,14.60
2010,06,12,08,45,14.60
2010,06,12,08,46,14.70
2010,06,12,08,47,14.70
2010,06,12,08,48,14.70
2010,06,12,08,49,14.70
2010,06,12,08,50,14.70
2010,06,12,08,51,14.80
2010,06,12,08,52,14.80
2010,06,12,08,53,14.80
2010,06,12,08,54,14.80
2010,06,12,08,55,14.70
2010,06,12,08,56,14.70
2010,06,12,08,57,14.70
2010,06,12,08,58,14.80
2010,06,12,08,59,14.80
2010,06,12,09,00,14.90
2010,06,12,09,01,15.00
2010,06,12,09,02,15.00
2010,06,12,09,03,15.10
2010,06,12,09,04,15.10
2010,06,12,09,05,15.10
2010,06,12,09,06,15.10
2010,06,12,09,07,15.20
2010,06,12,09,08,15.20
2010,06,12,09,09,15.30
2010,06,12,09,10,15.30
2010,06,12,09,11,15.30
2010,06,12,09,12,15.30
2010,06,12,09,13,15.30
2010,06,12,09,14,15.20
2010,06,12,09,15,15.30
2010,06,12,09,16,15.30
2010,06,12,09,17,15.30
2010,06,12,09,18,15.30
2010,06,12,09,19,15.30
2010,06,12,09,20,15.30
2010,06,12,09,21,15.30
2010,06,12,09,22,15.30
2010,06,12,09,23,15.40
2010,06,12,09,24,15.40
2010,06,12,09,25,15.40
2010,06,12,09,26,15.40
2010,06,12,09,27,15.50
2010,06,12,09,28,15.60
2010,06,12,09,29,15.70
2010,06,12,09,30,15.80
2010,06,12,09,31,15.80
2010,06,12,09,32,15.80
2010,06,12,09,33,15.80
2010,06,12,09,34,15.90
2010,06,12,09,35,16.00
2010,06,12,09,36,16.10
2010,06,12,09,37,16.00
2010,06,12,09,38,16.00
2010,06,12,09,39,15.90
2010,06,12,09,40,15.90
2010,06,12,09,41,15.90
2010,06,12,09,42,15.80
2010,06,12,09,43,15.80
2010,06,12,09,44,15.90
2010,06,12,09,45,16.00
2010,06,12,09,46,16.20
2010,06,12,09,47,16.30
2010,06,12,09,48,16.30
2010,06,12,09,49,16.30
2010,06,12,09,50,16.20
2010,06,12,09,51,16.20
2010,06,12,09,52,16.20
2010,06,12,09,53,16.00
2010,06,12,09,54,16.10
2010,06,12,09,55,16.20
2010,06,12,09,56,16.20
2010,06,12,09,57,16.20
2010,06,12,09,58,16.20
2010,06,12,09,59,16.10
2010,06,12,10,00,16.10
2010,06,12,10,01,16.00
2010,06,12,10,02,15.90
2010,06,12,10,03,15.90
2010,06,12,10,04,15.90
2010,06,12,10,05,15.90
2010,06,12,10,06,16.00
2010,06,12,10,07,16.00
2010,06,12,10,08,16.00
2010,06,12,10,09,16.10
2010,06,12,10,10,16.20
2010,06,12,10,11,16.30
2010,06,12,10,12,16.40
2010,06,12,10,13,16.50
2010,06,12,10,14,16.60
2010,06,12,10,15,16.70
2010,06,12,10,16,16.60
2010,06,12,10,17,16.60
2010,06,12,10,18,16.70
2010,06,12,10,19,16.70
2010,06,12,10,20,16.70
2010,06,12,10,21,16.80
2010,06,12,10,22,16.80
2010,06,12,10,23,16.80
2010,06,12,10,24,16.90
2010,06,12,10,25,16.90
2010,06,12,10,26,16.90
2010,06,12,10,27,16.90
2010,06,12,10,28,17.00
2010,06,12,10,29,16.90
2010,06,12,10,30,16.80
2010,06,12,10,31,16.80
2010,06,12,10,32,16.80
2010,06,12,10,33,16.90
2010,06,12,10,34,16.90
2010,06,12,10,35,16.90
2010,06,12,10,36,16.90
2010,06,12,10,37,16.80
2010,06,12,10,38,16.80
2010,06,12,10,39,16.80
2010,06,12,10,40,16.70
2010,06,12,10,41,16.80
2010,06,12,10,42,16.80
2010,06,12,10,43,16.70
2010,06,12,10,44,16.60
2010,06,12,10,45,16.50
2010,06,12,10,46,16.40
2010,06,12,10,47,16.50
2010,06,12,10,48,16.50
2010,06,12,10,49,16.50
2010,06,12,10,50,16.60
2010,06,12,10,51,16.60
2010,06,12,10,52,16.70
2010,06,12,10,53,16.80
2010,06,12,10,54,16.80
2010,06,12,10,55,16.70
2010,06,12,10,56,16.60
2010,06,12,10,57,16.60
2010,06,12,10,58,16.50
2010,06,12,10,59,16.50
2010,06,12,11,00,16.50
2010,06,12,11,01,16.60
2010,06,12,11,02,16.70
2010,06,12,11,03,16.60
2010,06,12,11,04,16.60
2010,06,12,11,05,16.60
2010,06,12,11,06,16.70
2010,06,12,11,07,16.70
2010,06,12,11,08,16.70
2010,06,12,11,09,16.70
2010,06,12,11,10,16.70
2010,06,12,11,11,16.60
2010,06,12,11,12,16.60
2010,06,12,11,13,16.70
2010,06,12,11,14,16.70
2010,06,12,11,15,16.60
2010,06,12,11,16,16.60
2010,06,12,11,17,16.60
2010,06,12,11,18,16.70
2010,06,12,11,19,17.00
2010,06,12,11,20,17.10
2010,06,12,11,21,17.20
2010,06,12,11,22,17.10
2010,06,12,11,23,17.10
2010,06,12,11,24,17.20
2010,06,12,11,25,17.30
2010,06,12,11,26,17.30
2010,06,12,11,27,17.20
2010,06,12,11,28,17.10
2010,06,12,11,29,17.10
2010,06,12,11,30,17.10
2010,06,12,11,31,17.10
2010,06,12,11,32,17.10
2010,06,12,11,33,17.00
2010,06,12,11,34,16.80
2010,06,12,11,35,16.80
2010,06,12,11,36,16.80
2010,06,12,11,37,16.90
2010,06,12,11,38,16.90
2010,06,12,11,39,17.00
2010,06,12,11,40,17.10
2010,06,12,11,41,17.20
2010,06,12,11,42,17.40
2010,06,12,11,43,17.70
2010,06,12,11,44,17.80
2010,06,12,11,45,18.00
2010,06,12,11,46,18.00
2010,06,12,11,47,17.90
2010,06,12,11,48,17.90
2010,06,12,11,49,17.80
2010,06,12,11,50,17.80
2010,06,12,11,51,17.70
2010,06,12,11,52,17.60
2010,06,12,11,53,17.50
2010,06,12,11,54,17.30
2010,06,12,11,55,17.20
2010,06,12,11,56,17.10
2010,06,12,11,57,17.10
2010,06,12,11,58,17.10
2010,06,12,11,59,17.20
2010,06,12,12,00,17.30
2010,06,12,12,01,17.40
2010,06,12,12,02,17.40
2010,06,12,12,03,17.40
2010,06,12,12,04,17.40
2010,06,12,12,05,17.30
2010,06,12,12,06,17.20
2010,06,12,12,07,17.00
2010,06,12,12,08,16.70
2010,06,12,12,09,16.60
2010,06,12,12,10,16.50
2010,06,12,12,11,16.70
2010,06,12,12,12,16.80
2010,06,12,12,13,16.80
2010,06,12,12,14,16.90
2010,06,12,12,15,17.00
2010,06,12,12,16,17.10
2010,06,12,12,17,17.00
2010,06,12,12,18,17.00
2010,06,12,12,19,17.20
2010,06,12,12,20,17.10
2010,06,12,12,21,17.00
2010,06,12,12,22,17.10
2010,06,12,12,23,17.10
2010,06,12,12,24,17.10
2010,06,12,12,25,17.00
2010,06,12,12,26,17.00
2010,06,12,12,27,16.90
2010,06,12,12,28,16.80
2010,06,12,12,29,16.80
2010,06,12,12,30,16.80
2010,06,12,12,31,16.80
2010,06,12,12,32,16.80
2010,06,12,12,33,16.80
2010,06,12,12,34,16.80
2010,06,12,12,35,16.80
2010,06,12,12,36,16.90
2010,06,12,12,37,17.00
2010,06,12,12,38,17.00
2010,06,12,12,39,17.10
2010,06,12,12,40,17.10
2010,06,12,12,41,17.10
2010,06,12,12,42,17.20
2010,06,12,12,43,17.20
2010,06,12,12,44,17.40
2010,06,12,12,45,17.50
2010,06,12,12,46,17.70
2010,06,12,12,47,17.80
2010,06,12,12,48,17.80
2010,06,12,12,49,17.90
2010,06,12,12,50,18.00
2010,06,12,12,51,18.10
2010,06,12,12,52,18.20
2010,06,12,12,53,18.20
2010,06,12,12,54,18.20
2010,06,12,12,55,18.20
2010,06,12,12,56,18.00
2010,06,12,12,57,18.00
2010,06,12,12,58,18.30
2010,06,12,12,59,18.40
2010,06,12,13,00,18.40
2010,06,12,13,01,18.40
2010,06,12,13,02,18.30
2010,06,12,13,03,18.20
2010,06,12,13,04,18.10
2010,06,12,13,05,18.10
2010,06,12,13,06,18.20
2010,06,12,13,07,18.20
2010,06,12,13,08,18.20
2010,06,12,13,09,18.20
2010,06,12,13,10,18.20
2010,06,12,13,11,18.20
2010,06,12,13,12,18.20
2010,06,12,13,13,18.30
2010,06,12,13,14,18.30
2010,06,12,13,15,18.40
2010,06,12,13,16,18.40
2010,06,12,13,17,18.50
2010,06,12,13,18,18.60
2010,06,12,13,19,18.60
2010,06,12,13,20,18.60
2010,06,12,13,21,18.60
2010,06,12,13,22,18.50
2010,06,12,13,23,18.40
2010,06,12,13,24,18.40
2010,06,12,13,25,18.50
2010,06,12,13,26,18.50
2010,06,12,13,27,18.40
2010,06,12,13,28,18.50
2010,06,12,13,29,18.60
2010,06,12,13,30,18.80
2010,06,12,13,31,19.10
2010,06,12,13,32,19.30
2010,06,12,13,33,19.40
2010,06,12,13,34,19.20
2010,06,12,13,35,19.00
2010,06,12,13,36,18.80
2010,06,12,13,37,18.80
2010,06,12,13,38,18.90
2010,06,12,13,39,18.90
2010,06,12,13,40,18.90
2010,06,12,13,41,18.70
2010,06,12,13,42,18.60
2010,06,12,13,43,18.60
2010,06,12,13,44,18.70
2010,06,12,13,45,18.80
2010,06,12,13,46,18.80
2010,06,12,13,47,19.00
2010,06,12,13,48,19.10
2010,06,12,13,49,19.10
2010,06,12,13,50,19.10
2010,06,12,13,51,19.10
2010,06,12,13,52,19.10
2010,06,12,13,53,19.10
2010,06,12,13,54,19.10
2010,06,12,13,55,19.10
2010,06,12,13,56,19.20
2010,06,12,13,57,19.20
2010,06,12,13,58,19.30
2010,06,12,13,59,19.30
2010,06,12,14,00,19.30
2010,06,12,14,01,19.40
2010,06,12,14,02,19.30
2010,06,12,14,03,19.20
2010,06,12,14,04,19.20
2010,06,12,14,05,19.20
2010,06,12,14,06,19.10
2010,06,12,14,07,19.00
2010,06,12,14,08,18.90
2010,06,12,14,09,18.80
2010,06,12,14,10,18.70
2010,06,12,14,11,18.70
2010,06,12,14,12,18.60
2010,06,12,14,13,18.50
2010,06,12,14,14,18.50
2010,06,12,14,15,18.60
2010,06,12,14,16,18.70
2010,06,12,14,17,18.90
2010,06,12,14,18,19.00
2010,06,12,14,19,19.10
2010,06,12,14,20,19.30
2010,06,12,14,21,19.60
2010,06,12,14,22,19.70
2010,06,12,14,23,19.80
2010,06,12,14,24,19.80
2010,06,12,14,25,19.70
2010,06,12,14,26,19.70
2010,06,12,14,27,19.70
2010,06,12,14,28,19.70
2010,06,12,14,29,19.60
2010,06,12,14,30,19.40
2010,06,12,14,31,19.10
2010,06,12,14,32,18.90
2010,06,12,14,33,19.00
2010,06,12,14,34,19.10
2010,06,12,14,35,19.20
2010,06,12,14,36,19.10
2010,06,12,14,37,19.00
2010,06,12,14,38,19.00
2010,06,12,14,39,19.10
2010,06,12,14,40,19.20
2010,06,12,14,41,19.20
2010,06,12,14,42,19.30
2010,06,12,14,43,19.40
2010,06,12,14,44,19.40
2010,06,12,14,45,19.50
2010,06,12,14,46,19.40
2010,06,12,14,47,19.40
2010,06,12,14,48,19.40
2010,06,12,14,49,19.30
2010,06,12,14,50,19.30
2010,06,12,14,51,19.20
2010,06,12,14,52,19.30
2010,06,12,14,53,19.50
2010,06,12,14,54,19.60
2010,06,12,14,55,19.60
2010,06,12,14,56,19.60
2010,06,12,14,57,19.50
2010,06,12,14,58,19.40
2010,06,12,14,59,19.30
2010,06,12,15,00,19.30
2010,06,12,15,01,19.40
2010,06,12,15,02,19.60
2010,06,12,15,03,19.70
2010,06,12,15,04,19.70
2010,06,12,15,05,19.70
2010,06,12,15,06,19.70
2010,06,12,15,07,19.80
2010,06,12,15,08,19.90
2010,06,12,15,09,19.90
2010,06,12,15,10,20.00
2010,06,12,15,11,20.00
2010,06,12,15,12,19.90
2010,06,12,15,13,19.80
2010,06,12,15,14,19.80
2010,06,12,15,15,19.70
2010,06,12,15,16,19.80
2010,06,12,15,17,19.90
2010,06,12,15,18,20.00
2010,06,12,15,19,20.10
2010,06,12,15,20,20.20
2010,06,12,15,21,20.30
2010,06,12,15,22,20.40
2010,06,12,15,23,20.50
2010,06,12,15,24,20.40
2010,06,12,15,25,20.20
2010,06,12,15,26,20.00
2010,06,12,15,27,20.00
2010,06,12,15,28,20.20
2010,06,12,15,29,20.40
2010,06,12,15,30,20.40
2010,06,12,15,31,20.40
2010,06,12,15,32,20.40
2010,06,12,15,33,20.40
2010,06,12,15,34,20.30
2010,06,12,15,35,20.30
2010,06,12,15,36,20.40
2010,06,12,15,37,20.50
2010,06,12,15,38,20.50
2010,06,12,15,39,20.50
2010,06,12,15,40,20.50
2010,06,12,15,41,20.40
2010,06,12,15,42,20.30
2010,06,12,15,43,20.30
2010,06,12,15,44,20.20
2010,06,12,15,45,20.10
2010,06,12,15,46,20.10
2010,06,12,15,47,20.20
2010,06,12,15,48,20.30
2010,06,12,15,49,20.30
2010,06,12,15,50,20.30
2010,06,12,15,51,20.30
2010,06,12,15,52,20.20
2010,06,12,15,53,20.20
2010,06,12,15,54,20.30
2010,06,12,15,55,20.40
2010,06,12,15,56,20.30
2010,06,12,15,57,20.30
2010,06,12,15,58,20.30
2010,06,12,15,59,20.30
2010,06,12,16,00,20.30
2010,06,12,16,01,20.30
2010,06,12,16,02,20.50
2010,06,12,16,03,20.60
2010,06,12,16,04,20.70
2010,06,12,16,05,20.60
2010,06,12,16,06,20.60
2010,06,12,16,07,20.50
2010,06,12,16,08,20.50
2010,06,12,16,09,20.40
2010,06,12,16,10,20.40
2010,06,12,16,11,20.30
2010,06,12,16,12,20.20
2010,06,12,16,13,20.10
2010,06,12,16,14,20.10
2010,06,12,16,15,20.20
2010,06,12,16,16,20.30
2010,06,12,16,17,20.40
2010,06,12,16,18,20.50
2010,06,12,16,19,20.50
2010,06,12,16,20,20.50
2010,06,12,16,21,20.40
2010,06,12,16,22,20.50
2010,06,12,16,23,20.50
2010,06,12,16,24,20.60
2010,06,12,16,25,20.60
2010,06,12,16,26,20.60
2010,06,12,16,27,20.70
2010,06,12,16,28,20.70
2010,06,12,16,29,20.60
2010,06,12,16,30,20.60
2010,06,12,16,31,20.60
2010,06,12,16,32,20.60
2010,06,12,16,33,20.60
2010,06,12,16,34,20.60
2010,06,12,16,35,20.60
2010,06,12,16,36,20.50
2010,06,12,16,37,20.50
2010,06,12,16,38,20.60
2010,06,12,16,39,20.60
2010,06,12,16,40,20.60
2010,06,12,16,41,20.60
2010,06,12,16,42,20.50
2010,06,12,16,43,20.50
2010,06,12,16,44,20.50
2010,06,12,16,45,20.50
2010,06,12,16,46,20.40
2010,06,12,16,47,20.30
2010,06,12,16,48,20.30
2010,06,12,16,49,20.30
2010,06,12,16,50,20.30
2010,06,12,16,51,20.40
2010,06,12,16,52,20.50
2010,06,12,16,53,20.50
2010,06,12,16,54,20.50
2010,06,12,16,55,20.50
2010,06,12,16,56,20.40
2010,06,12,16,57,20.40
2010,06,12,16,58,20.50
2010,06,12,16,59,20.60
2010,06,12,17,00,20.60
2010,06,12,17,01,20.70
2010,06,12,17,02,20.70
2010,06,12,17,03,20.70
2010,06,12,17,04,20.60
2010,06,12,17,05,20.50
2010,06,12,17,06,20.40
2010,06,12,17,07,20.40
2010,06,12,17,08,20.40
2010,06,12,17,09,20.60
2010,06,12,17,10,20.60
2010,06,12,17,11,20.60
2010,06,12,17,12,20.60
2010,06,12,17,13,20.60
2010,06,12,17,14,20.50
2010,06,12,17,15,20.40
2010,06,12,17,16,20.20
2010,06,12,17,17,20.10
2010,06,12,17,18,20.00
2010,06,12,17,19,20.00
2010,06,12,17,20,19.90
2010,06,12,17,21,19.90
2010,06,12,17,22,19.80
2010,06,12,17,23,19.80
2010,06,12,17,24,19.70
2010,06,12,17,25,19.70
2010,06,12,17,26,19.70
2010,06,12,17,27,19.70